Weather History for LGEL - March, 2012

Change the Weather History Date:

Wednesday, March 14, 2012

  Actual Average Record
Temperature  
Mean Temperature 50 °F -  
Max Temperature 57 °F 62 °F 69 °F (1999)
Min Temperature 41 °F 46 °F 37 °F (1997)
Degree Days  
Heating Degree Days 16    
Moisture  
Dew Point 32 °F    
Average Humidity 53    
Maximum Humidity 70    
Minimum Humidity 33    
Precipitation  
Precipitation 0.00 in - - ()
Sea Level Pressure  
Sea Level Pressure 30.09 in    
Wind  
Wind Speed 9 mph ()    
Max Wind Speed 15 mph    
Max Gust Speed 25 mph    
Visibility 6.2 miles    
Events      
Averages and records for this station are not official NWS values.
T = Trace of Precipitation, MM = Missing Value Source: Averaged Metar Reports

Daily Weather History Graph

Daily Weather History Graph

Search for Another Location

Airport or City:

Trip Planner

Search our weather history database for the weather conditions in past years. The results will help you decide how hot, cold, wet, or windy it might be!

Date:

Astronomy

Mar. 14, 2012 Rise Set
Actual Time 6:38 AM EET 6:32 PM EET
Civil Twilight 6:11 AM EET 6:58 PM EET
Nautical Twilight 5:41 AM EET 7:29 PM EET
Astronomical Twilight 5:10 AM EET 7:59 PM EET
Moon 12:41 AM EET (3/14) 10:36 AM EET (3/14)
Length of Visible Light 12h 46m
Length of Day
11h 54m
Waning Gibbous, 57% of the Moon is Illuminated
Mar 14
Waning Gibbous
Mar 15
Last Quarter
Mar 22
New
Mar 30
First Quarter
Apr 6
Full

Hourly Weather History & Observations

Time (EET) Temp. Windchill Dew Point Humidity Pressure Visibility Wind Dir Wind Speed Gust Speed Precip Events Conditions
12:20 AM 46.4 °F 41.5 °F 33.8 °F 62% 30.04 in 6.2 mi NW 10.4 mph - N/A   Mostly Cloudy
12:50 AM 46.4 °F 41.9 °F 33.8 °F 62% 30.04 in 6.2 mi NW 9.2 mph - N/A   Mostly Cloudy
1:20 AM 46.4 °F 41.9 °F 33.8 °F 62% 30.04 in 6.2 mi NW 9.2 mph - N/A   Mostly Cloudy
1:50 AM 46.4 °F 41.9 °F 32.0 °F 57% 30.04 in 6.2 mi NNW 9.2 mph - N/A   Mostly Cloudy
2:20 AM 46.4 °F 42.9 °F 32.0 °F 57% 30.04 in 6.2 mi NW 6.9 mph - N/A   Mostly Cloudy
3:20 AM 46.4 °F 41.9 °F 33.8 °F 62% 30.04 in 6.2 mi NNW 9.2 mph - N/A   Mostly Cloudy
3:50 AM 46.4 °F 42.4 °F 33.8 °F 62% 30.04 in 6.2 mi NNW 8.1 mph - N/A   Mostly Cloudy
4:20 AM 46.4 °F 42.4 °F 33.8 °F 62% 30.04 in 6.2 mi NNW 8.1 mph - N/A   Mostly Cloudy
4:50 AM 46.4 °F 42.4 °F 33.8 °F 62% 30.04 in 6.2 mi NNW 8.1 mph - N/A   Mostly Cloudy
5:20 AM 46.4 °F 41.5 °F 33.8 °F 62% 30.04 in 6.2 mi NNW 10.4 mph - N/A   Mostly Cloudy
5:50 AM 46.4 °F 41.5 °F 33.8 °F 62% 30.06 in 6.2 mi NNW 10.4 mph - N/A   Mostly Cloudy
6:20 AM 46.4 °F 41.9 °F 33.8 °F 62% 30.06 in 6.2 mi NW 9.2 mph - N/A   Mostly Cloudy
6:50 AM 46.4 °F 41.5 °F 33.8 °F 62% 30.06 in 6.2 mi NW 10.4 mph - N/A   Mostly Cloudy
7:20 AM 46.4 °F 41.1 °F 33.8 °F 62% 30.06 in 6.2 mi NW 11.5 mph - N/A   Mostly Cloudy
7:50 AM 48.2 °F - 33.8 °F 58% 30.06 in 6.2 mi NW 9.2 mph - N/A   Scattered Clouds
8:20 AM 48.2 °F - 35.6 °F 62% 30.06 in 6.2 mi NW 12.7 mph - N/A   Scattered Clouds
8:50 AM 48.2 °F - 33.8 °F 58% 30.09 in 6.2 mi NNW 13.8 mph - N/A   Scattered Clouds
9:20 AM 48.2 °F - 35.6 °F 62% 30.09 in 6.2 mi NNW 12.7 mph - N/A   Mostly Cloudy
9:50 AM 48.2 °F - 35.6 °F 62% 30.12 in 6.2 mi NNW 8.1 mph - N/A   Mostly Cloudy
10:20 AM 48.2 °F - 35.6 °F 62% 30.09 in 6.2 mi North 11.5 mph - N/A   Scattered Clouds
10:50 AM 51.8 °F - 33.8 °F 50% 30.09 in 6.2 mi NNW 6.9 mph - N/A   Scattered Clouds
11:20 AM 53.6 °F - 35.6 °F 51% 30.09 in 6.2 mi NNW 10.4 mph - N/A   Scattered Clouds
11:50 AM 55.4 °F - 32.0 °F 41% 30.12 in 6.2 mi North 13.8 mph 25.3 mph N/A   Mostly Cloudy
12:20 PM 55.4 °F - 32.0 °F 41% 30.12 in 6.2 mi North 15.0 mph - N/A   Scattered Clouds
12:50 PM 57.2 °F - 32.0 °F 38% 30.12 in 6.2 mi North 11.5 mph - N/A   Scattered Clouds
1:20 PM 57.2 °F - 32.0 °F 38% 30.12 in 6.2 mi North 11.5 mph - N/A   Scattered Clouds
1:50 PM 57.2 °F - 30.2 °F 36% 30.12 in 6.2 mi NNW 12.7 mph - N/A   Scattered Clouds
2:20 PM 57.2 °F - 30.2 °F 36% 30.12 in 6.2 mi NW 12.7 mph - N/A   Scattered Clouds
2:50 PM 57.2 °F - 30.2 °F 36% 30.09 in 6.2 mi NNW 12.7 mph - N/A   Scattered Clouds
3:20 PM 57.2 °F - 28.4 °F 33% 30.09 in 6.2 mi NW 13.8 mph - N/A   Scattered Clouds
3:50 PM 57.2 °F - 30.2 °F 36% 30.09 in 6.2 mi NNW 12.7 mph - N/A   Scattered Clouds
4:20 PM 57.2 °F - 28.4 °F 33% 30.09 in 6.2 mi NW 13.8 mph - N/A   Partly Cloudy
4:50 PM 57.2 °F - 28.4 °F 33% 30.09 in 6.2 mi NW 11.5 mph - N/A   Partly Cloudy
5:20 PM 55.4 °F - 28.4 °F 36% 30.09 in - NW 9.2 mph - N/A   Clear
5:50 PM 55.4 °F - 30.2 °F 38% 30.09 in - NNW 9.2 mph - N/A   Clear
6:20 PM 53.6 °F - 30.2 °F 41% 30.09 in - NNW 4.6 mph - N/A   Clear
6:50 PM 50.0 °F - 32.0 °F 50% 30.12 in - Calm Calm - N/A   Clear
7:20 PM 50.0 °F - 32.0 °F 50% 30.12 in - Calm Calm - N/A   Clear
7:50 PM 48.2 °F - 32.0 °F 54% 30.12 in - Calm Calm - N/A   Clear
8:20 PM 44.6 °F - 32.0 °F 61% 30.12 in - Calm Calm - N/A   Clear
8:50 PM 42.8 °F - 33.8 °F 70% 30.12 in - Calm Calm - N/A   Clear
9:20 PM 42.8 °F 39.3 °F 30.2 °F 61% 30.12 in - NNW 5.8 mph - N/A   Clear
9:50 PM 42.8 °F 38.6 °F 32.0 °F 66% 30.15 in - NNW 6.9 mph - N/A   Clear
10:20 PM 42.8 °F 38.6 °F 32.0 °F 66% 30.15 in - NNW 6.9 mph - N/A   Clear
10:50 PM 42.8 °F 38.0 °F 30.2 °F 61% 30.18 in - NNW 8.1 mph - N/A   Clear
11:20 PM 42.8 °F 38.0 °F 30.2 °F 61% 30.18 in - NNW 8.1 mph - N/A   Clear
11:50 PM 41.0 °F 36.4 °F 30.2 °F 65% 30.18 in - North 6.9 mph - N/A   Clear